Home > Weather > Reykjavik > Past weeks

Flag for Iceland Past Weather in Reykjavik, Iceland — Yesterday and Last 2 Weeks

Now
52 °F

Passing clouds.


Feels Like: 49 °F
Forecast: 53 / 62 °F
Wind: 8 mph from East

Location: Reykjavik Airport

Current Time: Aug 24, 2016 at 4:21:44 AM

Latest Report: Aug 24, 2016 at 4:00 AM


Visibility: N/A

Pressure: 29.98 "Hg

Humidity: 67%

Dew Point: 41 °F

Location of ReykjavikLocation

Past Weather in Reykjavik — Graph

°F

Reykjavik Temperature Yesterday

Maximum temperature yesterday: 63 °F (at 4:00 PM)
Minimum temperature yesterday: 52 °F (at 7:00 AM)
Average temperature yesterday: 58 °F

High & Low Weather Summary for the Past Weeks

 TemperatureHumidityPressure
High63 °F (Aug 23, 4:00 PM)94% (Aug 13, 2:00 AM)30.15 "Hg (Aug 13, 2:00 AM)
Low46 °F (Aug 9, 3:00 AM)42% (Aug 23, 6:00 PM)29.39 "Hg (Aug 11, 4:00 PM)
Average55 °F76%29.75 "Hg
* Reported Aug 9 3:00 AM — Aug 24 3:00 AM, Reykjavik, Weather by CustomWeather, © 2016

Note: Actual official high and low records may vary slightly from our data, if they occured in-between our weather recording intervals... More about our weather records

Advertising

Reykjavik Weather History for the Previous 24 Hours

Scroll right to see more
 ConditionsComfort  
Time TempWeatherWind HumidityBarometerVisibility
3:00 AM
Wed, Aug 24
54 °FClear.6 mph63%29.98 "Hg10 mi
2:00 AM54 °FClear.8 mph63%29.98 "Hg10 mi
1:00 AM52 °FClear.6 mph67%30.01 "Hg10 mi
12:00 AM54 °FClear.8 mph63%30.01 "Hg10 mi
11:00 PM
Tue, Aug 23
55 °FPassing clouds.6 mph59%30.01 "HgN/A
10:00 PM57 °FClear.8 mph55%30.01 "Hg10 mi
9:00 PM59 °FSunny.7 mph51%29.98 "Hg10 mi
8:00 PM61 °FPassing clouds.3 mph48%29.98 "HgN/A
7:00 PM61 °FScattered clouds.7 mph52%29.98 "HgN/A
6:00 PM63 °FSprinkles. Broken clouds.13 mph42%29.95 "HgN/A
5:00 PM63 °FBroken clouds.13 mph45%29.95 "HgN/A
4:00 PM63 °FBroken clouds.13 mph45%29.95 "HgN/A
3:00 PM59 °FScattered showers. Broken clouds.7 mph68%29.95 "HgN/A
2:00 PM57 °FScattered showers. Broken clouds.12 mph72%29.95 "HgN/A
1:00 PM59 °FScattered showers. Broken clouds.8 mph63%29.92 "HgN/A
12:00 PM59 °FScattered showers. Broken clouds.9 mph55%29.92 "HgN/A
11:00 AM57 °FBroken clouds.8 mph67%29.92 "HgN/A
10:00 AM57 °FBroken clouds.13 mph63%29.89 "HgN/A
9:00 AM55 °FBroken clouds.8 mph67%29.89 "HgN/A
8:00 AM55 °FBroken clouds.8 mph67%29.86 "HgN/A
7:00 AM52 °FPassing clouds.7 mph77%29.83 "HgN/A
6:00 AM54 °FPassing clouds.3 mph72%29.83 "HgN/A
5:00 AM55 °FPartly cloudy.9 mph72%29.80 "HgN/A
4:00 AM55 °FPassing clouds.13 mph77%29.77 "HgN/A
Weather by CustomWeather, © 2016

See weather overviewHow to use our weather pages